QPF
0.00 0.00 0.00 0.00 0.00 0.00 0.00 0.00 0.00 0.00 0.00 0.00 0.00 0.00 0.00 0.00 0.00 0.00 0.00 0.00 0.00 0.00 0.00 0.00 0.00 0.00 0.00 0.00 0.00 0.00 0.00 0.00 0.00 0.00 0.00 0.00 0.00 0.00 0.00 0.00 0.00 0.00
0.00 0.00 0.00 0.00 0.00 0.00 0.00 0.00 0.00 0.00 0.00 0.00 0.00 0.00 0.00 0.00 0.00 0.00 0.00 0.00 0.00 0.00 0.00 0.00 0.00 0.00 0.00 0.00 0.00 0.00 0.00 0.00 0.00 0.00 0.00 0.00 0.00 0.00 0.00 0.00 0.00 0.00
0.00 0.00 0.00 0.00 0.00 0.00 0.00 0.00 0.00 0.00 0.00 0.00 0.00 0.00 0.00 0.00 0.00 0.00 0.00 0.00 0.00 0.00 0.00 0.00 0.00 0.00 0.00 0.00 0.00 0.00 0.00 0.00 0.00 0.00 0.00 0.00 0.00 0.00 0.00 0.00 0.00 0.00
0.00 0.00 0.00 0.00 0.00 0.00 0.00 0.00 0.00 0.00 0.00 0.00 0.00 0.00 0.00 0.00 0.00 0.00 0.00 0.00 0.00 0.00 0.00 0.00 0.00 0.00 0.00 0.00 0.00 0.00 0.00 0.00 0.00 0.00 0.00 0.00 0.00 0.00 0.00 0.00 0.00 0.00
0.00 0.00 0.00 0.00 0.00 0.00 0.00 0.00 0.00 0.00 0.00 0.00 0.00 0.00 0.00 0.00 0.00 0.00 0.00 0.00 0.00 0.00 0.00 0.00 0.00 0.00 0.00 0.00 0.00 0.00 0.00 0.00 0.00 0.00 0.00 0.00 0.00 0.00 0.00 0.00 0.00 0.00
0.00 0.00 0.00 0.00 0.00 0.00 0.00 0.00 0.00 0.00 0.00 0.00 0.00 0.00 0.00 0.00 0.00 0.00 0.00 0.00 0.00 0.00 0.00 0.00 0.00 0.00 0.00 0.00 0.00 0.00 0.00 0.00 0.00 0.00 0.00 0.00 0.00 0.00 0.00 0.00 0.00 0.00
0.00 0.00 0.00 0.00 0.00 0.00 0.00 0.00 0.00 0.00 0.00 0.00 0.00 0.00 0.00 0.00 0.00 0.00 0.00 0.00 0.00 0.00 0.00 0.00 0.00 0.00 0.00 0.00 0.00 0.00 0.00 0.00 0.00 0.00 0.00 0.00 0.00 0.00 0.00 0.00 0.00 0.00
0.02 0.01 0.00 0.00 0.00 0.00 0.00 0.00 0.00 0.00 0.00 0.00 0.00 0.00 0.00 0.00 0.00 0.00 0.00 0.00 0.00 0.00 0.00 0.00 0.00 0.00 0.00 0.00 0.00 0.00 0.00 0.00 0.00 0.00 0.00 0.00 0.00 0.00 0.00 0.00 0.00 0.00
0.03 0.02 0.02 0.01 0.00 0.00 0.00 0.00 0.00 0.00 0.00 0.00 0.00 0.00 0.00 0.00 0.00 0.00 0.00 0.00 0.00 0.01 0.00 0.00 0.00 0.00 0.00 0.00 0.00 0.00 0.00 0.00 0.00 0.00 0.00 0.00 0.00 0.00 0.00 0.00 0.00 0.00
0.06 0.07 0.09 0.10 0.00 0.01 0.00 0.00 0.00 0.01 0.00 0.00 0.00 0.00 0.00 0.00 0.00 0.00 0.00 0.04 0.15 0.06 0.01 0.00 0.00 0.00 0.00 0.00 0.00 0.00 0.00 0.00 0.00 0.00 0.00 0.00 0.00 0.00 0.00 0.00 0.00 0.00
0.06 0.08 0.06 0.02 0.02 0.02 0.00 0.00 0.00 0.00 0.01 0.01 0.00 0.01 0.02 0.01 0.00 0.00 0.26 0.23 0.04 0.06 0.03 0.00 0.00 0.03 0.05 0.06 0.00 0.00 0.00 0.00 0.00 0.00 0.00 0.00 0.00 0.00 0.00 0.00 0.00 0.00
0.00 0.00 0.00 0.00 0.00 0.00 0.00 0.00 0.00 0.00 0.00 0.00 0.00 0.00 0.00 0.00 0.01 0.12 0.22 0.17 0.10 0.07 0.04 0.05 0.09 0.24 0.25 0.09 0.00 0.00 0.00 0.00 0.00 0.00 0.00 0.00 0.00 0.00 0.00 0.00 0.00 0.00
0.02 0.02 0.00 0.00 0.00 0.00 0.00 0.00 0.00 0.00 0.01 0.02 0.02 0.01 0.01 0.00 0.00 0.00 0.01 0.02 0.06 0.10 0.09 0.06 0.12 0.29 0.43 0.08 0.06 0.02 0.01 0.00 0.00 0.00 0.00 0.00 0.00 0.00 0.00 0.00 0.00 0.00
0.00 0.01 0.00 0.00 0.00 0.00 0.00 0.00 0.00 0.00 0.02 0.03 0.04 0.04 0.04 0.03 0.02 0.01 0.00 0.01 0.02 0.04 0.04 0.04 0.04 0.10 0.11 0.10 0.07 0.05 0.04 0.01 0.00 0.00 0.00 0.00 0.00 0.00 0.00 0.00 0.00 0.00
0.00 0.00 0.00 0.00 0.00 0.00 0.00 0.00 0.00 0.00 0.00 0.00 0.00 0.00 0.00 0.00 0.00 0.00 0.00 0.00 0.00 0.00 0.00 0.01 0.01 0.02 0.04 0.05 0.05 0.04 0.02 0.02 0.01 0.00 0.00 0.00 0.00 0.00 0.00 0.00 0.00 0.00
0.00 0.00 0.00 0.00 0.00 0.00 0.00 0.00 0.00 0.00 0.00 0.00 0.00 0.00 0.00 0.00 0.00 0.00 0.00 0.00 0.00 0.00 0.00 0.00 0.00 0.00 0.00 0.01 0.01 0.01 0.07 0.06 0.00 0.00 0.00 0.00 0.00 0.00 0.00 0.00 0.00 0.00
0.00 0.00 0.00 0.00 0.00 0.00 0.00 0.00 0.00 0.00 0.00 0.00 0.00 0.00 0.00 0.00 0.00 0.00 0.00 0.00 0.00 0.00 0.00 0.00 0.00 0.00 0.00 0.00 0.00 0.00 0.01 0.02 0.01 0.00 0.00 0.00 0.00 0.00 0.00 0.00 0.00 0.00
0.00 0.00 0.00 0.00 0.00 0.00 0.00 0.00 0.00 0.00 0.00 0.00 0.00 0.00 0.00 0.00 0.00 0.00 0.00 0.00 0.00 0.00 0.00 0.00 0.00 0.00 0.00 0.00 0.00 0.00 0.00 0.00 0.01 0.00 0.01 0.02 0.00 0.00 0.00 0.00 0.00 0.00
0.00 0.00 0.00 0.00 0.00 0.00 0.00 0.00 0.00 0.00 0.00 0.00 0.00 0.00 0.00 0.00 0.00 0.00 0.00 0.00 0.00 0.00 0.00 0.00 0.00 0.00 0.00 0.00 0.00 0.00 0.00 0.01 0.02 0.00 0.02 0.01 0.00 0.00 0.00 0.00 0.00 0.00
0.00 0.00 0.00 0.00 0.00 0.00 0.00 0.00 0.00 0.00 0.00 0.00 0.00 0.00 0.00 0.00 0.00 0.00 0.00 0.00 0.00 0.00 0.00 0.00 0.00 0.00 0.00 0.00 0.00 0.00 0.00 0.00 0.01 0.05 0.00 0.00 0.00 0.00 0.00 0.02 0.00 0.00
0.00 0.00 0.00 0.00 0.00 0.00 0.00 0.00 0.00 0.00 0.00 0.00 0.00 0.00 0.00 0.00 0.00 0.00 0.00 0.00 0.00 0.00 0.00 0.00 0.00 0.00 0.00 0.00 0.00 0.00 0.00 0.01 0.00 0.00 0.02 0.02 0.01 0.00 0.02 0.00 0.00 0.00
0.00 0.00 0.00 0.00 0.00 0.00 0.00 0.00 0.00 0.00 0.00 0.00 0.00 0.00 0.00 0.00 0.00 0.00 0.00 0.00 0.00 0.00 0.00 0.00 0.00 0.00 0.00 0.00 0.00 0.00 0.00 0.00 0.01 0.00 0.00 0.01 0.00 0.00 0.00 0.00 0.00 0.00
0.00 0.00 0.00 0.00 0.00 0.00 0.00 0.00 0.00 0.00 0.00 0.00 0.00 0.00 0.00 0.00 0.00 0.00 0.00 0.00 0.00 0.00 0.00 0.00 0.00 0.00 0.00 0.00 0.00 0.00 0.00 0.01 0.00 0.00 0.00 0.00 0.01 0.03 0.01 0.01 0.00 0.00
0.00 0.00 0.00 0.00 0.00 0.00 0.00 0.00 0.00 0.00 0.00 0.00 0.00 0.00 0.00 0.00 0.00 0.00 0.00 0.00 0.00 0.00 0.00 0.00 0.00 0.00 0.00 0.00 0.00 0.00 0.00 0.00 0.00 0.02 0.01 0.01 0.01 0.01 0.00 0.00 0.00 0.00
0.00 0.00 0.00 0.00 0.00 0.00 0.00 0.00 0.00 0.00 0.00 0.00 0.00 0.00 0.00 0.00 0.00 0.00 0.00 0.00 0.00 0.00 0.00 0.00 0.00 0.00 0.00 0.00 0.00 0.00 0.02 0.00 0.00 0.02 0.00 0.00 0.00 0.00 0.00 0.01 0.00 0.00
0.00 0.00 0.00 0.00 0.00 0.00 0.00 0.00 0.00 0.00 0.00 0.00 0.00 0.00 0.00 0.00 0.00 0.00 0.00 0.00 0.00 0.00 0.00 0.00 0.00 0.00 0.00 0.00 0.00 0.00 0.01 0.00 0.00 0.00 0.01 0.00 0.00 0.00 0.00 0.00 0.00 0.00
MSLP
1014.85 1015.01 1015.41 1015.81 1016.13 1016.29 1016.53 1016.69 1016.77 1016.89 1017.09 1017.21 1017.33 1017.53 1017.65 1017.77 1017.89 1018.09 1018.17 1018.37 1018.53 1018.61 1018.73 1018.81 1018.85 1018.89 1018.93 1019.05 1019.13 1019.17 1019.29 1019.41 1019.49 1019.49 1019.57 1019.61 1019.65 1019.65 1019.65 1019.61 1019.65 1019.73
1014.85 1014.97 1015.21 1015.57 1015.97 1016.21 1016.41 1016.45 1016.61 1016.73 1016.97 1017.09 1017.09 1017.25 1017.41 1017.57 1017.77 1017.93 1018.17 1018.37 1018.49 1018.65 1018.77 1018.89 1018.97 1019.01 1019.05 1019.17 1019.25 1019.29 1019.41 1019.53 1019.61 1019.57 1019.69 1019.73 1019.77 1019.77 1019.73 1019.73 1019.73 1019.77
1014.89 1015.01 1015.13 1015.49 1015.81 1016.09 1016.25 1016.41 1016.45 1016.53 1016.77 1016.93 1017.01 1017.13 1017.33 1017.41 1017.57 1017.77 1018.01 1018.25 1018.49 1018.65 1018.81 1018.93 1019.05 1019.09 1019.17 1019.21 1019.37 1019.45 1019.57 1019.65 1019.73 1019.73 1019.81 1019.89 1019.85 1019.85 1019.85 1019.77 1019.81 1019.85
1015.05 1015.05 1015.13 1015.33 1015.61 1015.85 1015.97 1016.25 1016.41 1016.45 1016.49 1016.85 1017.01 1017.09 1017.17 1017.37 1017.45 1017.69 1017.89 1018.09 1018.37 1018.61 1018.77 1018.93 1019.05 1019.13 1019.21 1019.25 1019.37 1019.57 1019.57 1019.69 1019.73 1019.81 1019.85 1019.89 1019.89 1019.89 1019.93 1019.85 1019.85 1019.89
1015.37 1015.33 1015.25 1015.25 1015.41 1015.65 1015.85 1016.05 1016.29 1016.41 1016.45 1016.49 1016.73 1016.97 1017.17 1017.41 1017.53 1017.69 1017.89 1018.09 1018.29 1018.57 1018.77 1018.93 1019.05 1019.13 1019.29 1019.37 1019.37 1019.61 1019.65 1019.69 1019.77 1019.85 1019.89 1019.97 1020.01 1019.97 1019.97 1019.97 1020.01 1020.09
1015.41 1015.41 1015.37 1015.29 1015.37 1015.53 1015.77 1015.89 1016.01 1016.21 1016.33 1016.41 1016.57 1016.77 1016.97 1017.17 1017.45 1017.57 1017.81 1018.01 1018.25 1018.49 1018.73 1018.85 1019.05 1019.13 1019.29 1019.45 1019.53 1019.69 1019.77 1019.77 1019.81 1019.85 1019.97 1020.05 1020.09 1020.01 1020.09 1020.13 1020.17 1020.25
1015.37 1015.33 1015.37 1015.29 1015.33 1015.41 1015.61 1015.77 1015.89 1015.97 1016.17 1016.29 1016.45 1016.65 1016.81 1017.13 1017.29 1017.49 1017.65 1017.85 1018.17 1018.49 1018.69 1018.89 1019.01 1019.13 1019.25 1019.41 1019.49 1019.73 1019.89 1019.89 1019.89 1019.85 1020.01 1020.09 1020.09 1020.13 1020.17 1020.21 1020.21 1020.25
1015.25 1015.25 1015.25 1015.25 1015.37 1015.45 1015.61 1015.69 1015.69 1015.73 1015.85 1016.09 1016.37 1016.49 1016.69 1016.89 1017.01 1017.29 1017.53 1017.81 1018.09 1018.37 1018.69 1018.93 1019.01 1019.09 1019.25 1019.45 1019.53 1019.73 1019.81 1019.89 1019.93 1019.93 1020.05 1020.21 1020.17 1020.13 1020.21 1020.21 1020.25 1020.33
1015.57 1015.61 1015.49 1015.49 1015.65 1015.81 1015.89 1015.89 1015.81 1015.73 1015.77 1015.93 1016.09 1016.33 1016.45 1016.73 1016.97 1017.17 1017.61 1018.13 1018.53 1018.89 1018.93 1018.93 1018.89 1019.05 1019.21 1019.37 1019.53 1019.57 1019.65 1019.77 1019.85 1019.93 1019.97 1020.09 1020.25 1020.13 1020.17 1020.17 1020.21 1020.29
1015.77 1016.17 1016.41 1016.25 1016.05 1016.09 1016.21 1016.29 1016.17 1016.05 1016.01 1015.97 1016.17 1016.33 1016.57 1016.81 1017.01 1017.29 1017.53 1017.65 1017.81 1018.09 1018.41 1018.81 1018.89 1018.97 1019.13 1019.17 1019.29 1019.37 1019.49 1019.53 1019.65 1019.77 1019.77 1019.81 1020.01 1020.09 1020.05 1020.13 1020.21 1020.29
1015.93 1016.13 1016.29 1016.41 1016.29 1016.21 1016.33 1016.37 1016.29 1016.21 1016.13 1016.17 1016.29 1016.45 1016.57 1016.65 1017.17 1017.25 1017.37 1017.45 1017.65 1017.89 1018.13 1018.37 1018.81 1019.17 1019.53 1019.89 1019.77 1019.33 1019.09 1019.13 1019.25 1019.41 1019.57 1019.65 1019.77 1019.89 1019.93 1020.01 1020.17 1020.21
1015.81 1015.89 1016.01 1016.09 1016.09 1016.17 1016.21 1016.29 1016.29 1016.13 1016.09 1016.09 1016.17 1016.37 1016.41 1016.53 1016.93 1017.09 1017.05 1017.13 1017.45 1017.69 1017.89 1018.21 1018.53 1018.85 1018.97 1018.89 1018.81 1019.01 1018.97 1018.85 1018.89 1019.01 1019.17 1019.33 1019.49 1019.65 1019.73 1019.89 1020.05 1020.13
1016.01 1015.97 1016.05 1016.05 1016.01 1016.05 1016.17 1016.17 1016.09 1016.05 1016.05 1016.09 1016.17 1016.29 1016.41 1016.61 1016.73 1016.85 1016.93 1017.05 1017.25 1017.41 1017.69 1018.09 1018.41 1018.37 1018.57 1018.45 1018.33 1018.33 1018.53 1018.69 1018.73 1018.77 1018.81 1018.93 1019.05 1019.29 1019.41 1019.61 1019.81 1019.97
1015.97 1015.93 1016.09 1016.05 1016.05 1016.13 1016.13 1016.05 1016.05 1016.01 1016.01 1016.13 1016.21 1016.37 1016.57 1016.73 1016.89 1016.93 1016.89 1016.97 1017.09 1017.25 1017.45 1017.65 1017.93 1018.17 1018.37 1018.45 1018.33 1018.17 1018.13 1018.33 1018.41 1018.45 1018.45 1018.49 1018.61 1018.85 1019.13 1019.37 1019.61 1019.81
1015.85 1015.85 1015.85 1015.93 1016.01 1016.09 1016.13 1016.09 1016.05 1016.05 1016.09 1016.17 1016.21 1016.29 1016.41 1016.57 1016.69 1016.81 1016.89 1017.05 1017.13 1017.21 1017.33 1017.41 1017.53 1017.61 1017.69 1017.73 1017.97 1018.17 1018.25 1018.25 1018.21 1018.09 1018.21 1018.33 1018.45 1018.57 1018.85 1019.09 1019.33 1019.57
1015.57 1015.69 1015.69 1015.85 1016.01 1016.01 1016.01 1016.05 1015.97 1016.01 1016.09 1016.13 1016.13 1016.17 1016.25 1016.33 1016.45 1016.61 1016.73 1016.85 1017.01 1017.17 1017.29 1017.33 1017.33 1017.33 1017.37 1017.41 1017.57 1017.85 1017.93 1017.93 1018.05 1018.25 1018.25 1018.21 1018.29 1018.45 1018.69 1018.85 1019.05 1019.29
1015.37 1015.45 1015.41 1015.49 1015.61 1015.73 1015.73 1015.69 1015.73 1015.89 1015.97 1015.97 1016.05 1016.17 1016.17 1016.17 1016.33 1016.49 1016.61 1016.69 1016.81 1016.93 1017.09 1017.17 1017.09 1017.05 1017.01 1017.21 1017.45 1017.73 1017.81 1017.81 1017.85 1017.97 1018.13 1018.13 1018.17 1018.29 1018.53 1018.77 1018.93 1019.01
1015.41 1015.29 1015.33 1015.41 1015.33 1015.41 1015.49 1015.65 1015.77 1015.85 1015.89 1015.89 1016.05 1016.21 1016.17 1016.25 1016.41 1016.41 1016.45 1016.57 1016.69 1016.77 1016.85 1016.89 1016.89 1016.77 1016.93 1017.01 1017.13 1017.41 1017.61 1017.57 1017.61 1017.73 1017.97 1018.17 1018.13 1018.21 1018.45 1018.65 1018.81 1018.97
1015.41 1015.45 1015.49 1015.45 1015.41 1015.37 1015.37 1015.37 1015.41 1015.53 1015.73 1015.89 1015.93 1015.81 1015.89 1016.17 1016.17 1016.37 1016.41 1016.37 1016.45 1016.53 1016.57 1016.61 1016.65 1016.53 1016.69 1016.81 1016.85 1016.97 1017.33 1017.41 1017.41 1017.45 1017.73 1018.09 1018.17 1018.17 1018.33 1018.53 1018.73 1018.93
1015.45 1015.49 1015.49 1015.49 1015.49 1015.49 1015.53 1015.61 1015.65 1015.73 1015.73 1015.69 1015.61 1015.69 1015.85 1016.09 1016.13 1016.17 1016.13 1016.17 1016.17 1016.13 1016.17 1016.25 1016.33 1016.33 1016.41 1016.53 1016.61 1016.85 1017.25 1017.25 1017.21 1017.33 1017.49 1017.57 1017.69 1017.89 1018.17 1018.41 1018.61 1018.85
1015.57 1015.57 1015.61 1015.53 1015.49 1015.57 1015.61 1015.65 1015.73 1015.77 1015.77 1015.69 1015.69 1015.73 1015.73 1015.69 1015.69 1015.77 1015.81 1015.89 1015.93 1015.97 1015.97 1016.01 1015.97 1015.93 1016.05 1016.13 1016.37 1016.85 1017.09 1017.17 1017.37 1017.49 1017.65 1017.69 1017.85 1018.13 1018.37 1018.65 1018.85 1019.09
1015.57 1015.61 1015.57 1015.57 1015.61 1015.69 1015.77 1015.85 1015.93 1015.97 1015.93 1015.89 1015.89 1015.85 1015.77 1015.73 1015.65 1015.69 1015.69 1015.69 1015.81 1015.85 1015.97 1016.05 1016.17 1016.33 1016.29 1016.49 1016.81 1017.01 1016.97 1017.13 1017.33 1017.53 1017.77 1018.09 1018.29 1018.53 1018.61 1018.73 1018.81 1019.01
1015.65 1015.61 1015.65 1015.61 1015.61 1015.61 1015.69 1015.77 1015.81 1015.81 1015.81 1015.81 1015.89 1015.89 1015.85 1015.85 1015.85 1015.85 1016.05 1016.09 1015.93 1015.93 1016.01 1016.29 1016.77 1016.89 1016.65 1016.69 1016.93 1017.05 1017.09 1017.37 1017.53 1017.81 1018.01 1018.21 1018.45 1018.53 1018.65 1018.85 1018.93 1019.13
1015.73 1015.73 1015.77 1015.77 1015.77 1015.77 1015.81 1015.89 1015.89 1015.89 1015.89 1015.89 1015.93 1015.93 1015.93 1015.93 1015.93 1016.21 1016.53 1016.57 1016.29 1016.45 1016.85 1016.85 1017.25 1017.33 1016.85 1016.69 1016.81 1016.97 1017.09 1017.45 1017.77 1017.97 1018.25 1018.37 1018.57 1018.69 1018.69 1018.73 1018.89 1019.05
1015.65 1015.65 1015.69 1015.69 1015.69 1015.69 1015.65 1015.69 1015.69 1015.69 1015.73 1015.77 1015.81 1015.89 1015.97 1016.09 1016.21 1016.53 1017.01 1017.29 1017.37 1017.29 1017.29 1017.29 1017.69 1017.73 1017.45 1016.97 1016.93 1017.05 1017.29 1017.61 1017.85 1018.09 1018.41 1018.69 1018.77 1019.01 1019.09 1019.13 1019.41 1019.77
1015.73 1015.73 1015.69 1015.69 1015.65 1015.65 1015.69 1015.61 1015.61 1015.61 1015.65 1015.69 1015.73 1015.81 1016.01 1016.33 1016.65 1016.89 1017.17 1017.77 1017.89 1017.93 1018.05 1018.01 1017.81 1017.89 1017.81 1017.57 1017.45 1017.49 1017.57 1017.93 1018.21 1018.29 1018.61 1018.97 1019.17 1019.17 1019.21 1019.49 1019.85 1020.17
Thickness
5619 5618 5617 5613 5611 5609 5607 5606 5606 5604 5603 5602 5602 5600 5599 5598 5597 5596 5595 5593 5592 5590 5589 5588 5588 5587 5587 5587 5586 5586 5585 5585 5584 5584 5584 5584 5584 5585 5585 5585 5586 5586
5616 5616 5615 5612 5609 5608 5606 5605 5604 5603 5602 5601 5600 5600 5599 5597 5596 5594 5592 5591 5590 5588 5587 5586 5585 5585 5584 5584 5583 5583 5582 5581 5581 5581 5581 5580 5581 5581 5582 5582 5582 5583
5613 5613 5612 5610 5608 5607 5605 5604 5603 5602 5601 5600 5599 5598 5597 5596 5595 5593 5591 5589 5587 5586 5585 5584 5583 5582 5582 5581 5580 5580 5579 5578 5578 5578 5578 5577 5578 5578 5578 5579 5579 5580
5608 5608 5609 5609 5608 5606 5605 5603 5602 5601 5600 5599 5597 5596 5595 5594 5593 5591 5589 5588 5586 5584 5583 5581 5581 5580 5579 5579 5578 5577 5577 5576 5576 5575 5575 5575 5575 5575 5575 5576 5576 5577
5602 5604 5606 5607 5606 5605 5604 5603 5601 5600 5599 5598 5597 5595 5593 5592 5591 5589 5587 5586 5584 5582 5581 5579 5578 5577 5576 5576 5575 5574 5574 5574 5573 5573 5572 5572 5572 5573 5573 5573 5573 5573
5599 5601 5602 5603 5604 5603 5603 5602 5601 5600 5599 5597 5597 5595 5593 5591 5589 5587 5586 5584 5582 5579 5578 5577 5576 5575 5574 5573 5572 5570 5570 5570 5570 5570 5570 5569 5570 5570 5570 5570 5571 5570
5597 5599 5599 5600 5601 5602 5602 5601 5600 5599 5597 5597 5596 5594 5593 5591 5588 5586 5584 5582 5580 5577 5575 5574 5573 5573 5572 5570 5569 5567 5566 5566 5566 5567 5566 5566 5567 5567 5567 5567 5568 5568
5595 5596 5597 5597 5597 5598 5600 5599 5599 5598 5597 5596 5594 5592 5591 5590 5588 5586 5583 5580 5577 5575 5573 5571 5570 5570 5568 5567 5566 5565 5564 5564 5563 5563 5563 5563 5563 5564 5564 5564 5565 5565
5590 5591 5591 5592 5591 5592 5593 5594 5595 5596 5596 5594 5593 5590 5590 5588 5586 5584 5580 5577 5574 5571 5570 5569 5569 5569 5567 5565 5564 5563 5562 5562 5562 5562 5561 5561 5561 5561 5561 5562 5562 5562
5585 5584 5583 5584 5585 5585 5586 5587 5589 5591 5591 5590 5589 5587 5586 5584 5583 5581 5578 5576 5574 5573 5571 5569 5568 5566 5564 5561 5561 5562 5562 5562 5561 5561 5561 5560 5559 5559 5559 5559 5559 5559
5580 5580 5579 5579 5579 5581 5581 5581 5584 5585 5586 5586 5585 5584 5583 5581 5579 5578 5577 5576 5575 5574 5572 5568 5566 5563 5560 5558 5558 5560 5562 5563 5562 5560 5560 5559 5558 5557 5558 5557 5556 5556
5576 5577 5576 5576 5576 5578 5578 5578 5580 5582 5582 5583 5582 5582 5581 5579 5577 5576 5576 5575 5574 5572 5571 5568 5564 5563 5562 5561 5561 5562 5562 5562 5562 5561 5559 5559 5558 5557 5557 5557 5555 5554
5571 5571 5572 5573 5573 5574 5574 5575 5576 5578 5579 5579 5578 5578 5577 5576 5575 5574 5573 5573 5571 5570 5568 5566 5564 5562 5561 5561 5563 5563 5562 5561 5560 5560 5560 5559 5559 5558 5556 5556 5554 5553
5566 5567 5568 5569 5569 5569 5570 5570 5572 5573 5574 5574 5574 5573 5573 5572 5571 5570 5570 5569 5568 5567 5566 5565 5563 5561 5559 5559 5561 5561 5560 5559 5558 5559 5560 5559 5559 5558 5556 5554 5552 5551
5563 5563 5563 5564 5564 5565 5565 5566 5567 5568 5568 5569 5569 5570 5569 5568 5567 5567 5566 5565 5564 5564 5564 5564 5563 5561 5560 5559 5559 5559 5558 5557 5557 5558 5558 5557 5557 5556 5554 5553 5551 5549
5561 5561 5560 5560 5559 5559 5560 5561 5562 5562 5563 5563 5564 5565 5565 5565 5564 5563 5562 5561 5560 5560 5559 5560 5560 5559 5559 5558 5556 5555 5555 5555 5554 5554 5554 5555 5555 5554 5552 5550 5549 5547
5558 5557 5557 5557 5557 5557 5556 5557 5557 5557 5557 5558 5558 5558 5559 5559 5559 5558 5558 5557 5556 5556 5556 5556 5556 5556 5556 5554 5552 5550 5550 5551 5550 5549 5550 5551 5551 5551 5549 5546 5545 5543
5553 5553 5553 5553 5554 5553 5553 5553 5553 5552 5552 5552 5553 5553 5552 5552 5552 5551 5552 5552 5552 5552 5551 5552 5552 5552 5551 5549 5548 5546 5545 5546 5547 5545 5544 5543 5544 5545 5544 5542 5541 5539
5547 5547 5548 5547 5548 5548 5549 5549 5548 5547 5547 5546 5547 5548 5547 5547 5546 5546 5546 5546 5546 5546 5547 5547 5547 5548 5546 5545 5545 5543 5541 5542 5543 5542 5541 5539 5538 5538 5538 5537 5536 5533
5540 5541 5541 5541 5542 5542 5541 5541 5540 5541 5540 5540 5541 5541 5541 5541 5540 5541 5541 5541 5542 5542 5542 5543 5543 5543 5542 5541 5540 5539 5537 5537 5537 5536 5536 5535 5534 5533 5532 5530 5529 5527
5534 5534 5534 5535 5535 5535 5535 5534 5533 5533 5533 5533 5533 5534 5534 5535 5535 5535 5536 5537 5537 5538 5537 5537 5537 5538 5538 5537 5536 5533 5532 5531 5531 5529 5528 5527 5525 5524 5523 5522 5521 5520
5527 5527 5527 5528 5529 5528 5527 5526 5526 5526 5526 5526 5526 5527 5527 5528 5529 5529 5531 5531 5532 5532 5532 5531 5530 5530 5530 5529 5527 5526 5526 5525 5523 5522 5520 5518 5516 5514 5513 5512 5512 5511
5520 5520 5520 5521 5521 5521 5520 5520 5519 5519 5519 5519 5520 5520 5520 5521 5522 5522 5522 5523 5523 5523 5523 5522 5520 5519 5521 5520 5518 5518 5518 5516 5514 5513 5511 5509 5508 5506 5505 5504 5502 5501
5512 5513 5513 5512 5513 5512 5513 5512 5512 5512 5512 5513 5513 5513 5513 5514 5515 5515 5512 5512 5513 5512 5511 5510 5508 5509 5511 5512 5511 5510 5509 5507 5506 5504 5502 5501 5499 5498 5497 5496 5494 5492
5505 5505 5505 5505 5505 5505 5505 5506 5506 5506 5506 5506 5506 5506 5506 5507 5507 5506 5504 5501 5501 5500 5499 5499 5498 5498 5500 5502 5502 5502 5500 5499 5497 5495 5494 5491 5490 5488 5487 5487 5485 5483
5497 5497 5497 5497 5497 5498 5499 5499 5499 5500 5500 5499 5499 5499 5499 5498 5498 5496 5494 5491 5490 5489 5488 5488 5489 5489 5490 5491 5491 5491 5490 5488 5487 5485 5484 5482 5480 5479 5478 5477 5475 5473